THOR ABLESTAR DEB, 2432

Orbit data source: Space-Track

THOR ABLESTAR DEB, 2432 is space debris in LEO originally from a launch on Thu, 05 Dec 1963 UTC launched from the Air Force Western Test Range (AFWTR). Debris objects in space refer to the collection of defunct objects orbiting the Earth. Examples of debris include non-operational satellites, rocket bodies, and fragments generated from explosions, collisions, or faulty payload assembly.

Loading next visibility...
Identifier
2432, 1963-049G
Orbit
LEO
Country
Flag of USUS
Related business
Manufacturer
Unknown
Mission
Spacecraft
Bus & Motor
Unknown
Mass
Unknown
Launch date (UTC)
1963-12-05 (62 years ago)
Launch vehicle
Unknown
Launch site
Air Force Western Test Range (AFWTR)
Object type
Payload
Rocket body
Debris
Shape & HBR
Unknown shape, 0.2 m
Radar Cross Section
Medium (>0.1 m² and <1 m²)

Expand to show TLE details & history
Last TLE update: 8 hours ago

TLE from 8 hours ago
0 THOR ABLESTAR DEB
1  2432U 63049G   26126.35106737  .00000114  00000-0  16887-3 0  9991
2  2432  89.9228  70.9714 0034389 358.8969 116.4594 13.48252631 67068
Epoch: 2026-05-06T08:25Z
TLE epoch observation values (Epoch: 2026-05-06T08:25:32.220Z)
Latitude
64.37426°
Longitude
-99.78578°
Altitude
1,101.375 km
Speed
7.302 km/s
True Right ascension
16h 43m 14s
True Declination
64° 14' 46"
Sunlit
Object was in daylight at epoch
Visualization orbit readout
Latitude
Unknown
Longitude
Unknown
Altitude
Unknown
Speed
Unknown
Apparent Right ascension
Unknown
Apparent Declination
Unknown
Sunlit
N/A
Visualization observer readout
Local Sidereal Time
00:12:04
Azimuth
Unknown
Elevation
Unknown
Doppler factor
Unknown
Orbital elements
Apogee altitude
1,101.38 km
Perigee altitude
1,050.114 km
Semi-major axis
7,453.884 km
Eccentricity
0.00344
Inclination
89.9228°
RAAN
70.9714°
Arg. of periapsis
358.8969°
True anomaly
116.81151°
Mean anomaly
116.4594°
Eccentric anomaly
116.63552°
Mean motion
3.37263 °/min
Orbital period
106.74 mins
BSTAR
0.00016887
Loading maneuver chart data...
Computing Atmospheric mass density...
Loading historical data...
Loading historical data...
Loading historical data...
Loading historical data...
Loading historical data...
Loading historical data...
Loading historical data...

Documentation

Showing up to 5 results
|